Location: Recife
(8.0585°S, 34.8848°W)
Time: 11:13:50
(UTC-03:00)

Courier 1B Rocket - Pass Details

Date: 17 April 2026
Orbit: 920 x 1201 km, 28.2° (Epoch: 13 May)

Event Time Altitude Azimuth Distance (km) Brightness Sun altitude
Rises 10:20:02 0° 227° (SW) 3,894 7.9 66.2°
Reaches altitude 10° 10:23:34 10° 211° (SSW) 2,987 7.4 66.8°
Maximum altitude 10:28:54 21° 164° (SSE) 2,345 7.1 67.5°
Drops below altitude 10° 10:34:24 10° 118° (ESE) 3,101 7.8 68.3°
Sets 10:38:09 0° 103° (ESE) 4,085 8.3 68.7°
